EW5449 Weather Reports


time (UTC)temp
C
wind
direction
speed
KPH
gust
KPH
rain 1hr
cm
rain 24hr
cm
rain mn
cm
humidity
%
barometer
mb
20260903193028 33 194 1.6 8.0 0.00 0.00 0.00 56 1013.8
20260903191517 32 221 1.6 9.7 0.00 0.00 0.00 57 1014.0
20260903190014 31 205 1.6 4.8 0.00 0.00 0.00 57 1014.3
20260903184511 31 238 1.6 4.8 0.00 0.00 0.00 60 1014.5
20260903183010 31 202 0.0 8.0 0.00 0.00 0.00 61 1014.6
20260903181512 30 129 0.0 4.8 0.00 0.00 0.00 62 1014.7
20260903180013 30 159 1.6 6.4 0.00 0.00 0.00 63 1015.1
20260903174504 30 205 1.6 4.8 0.00 0.00 0.00 65 1015.5
20260903173003 30 186 0.0 4.8 0.00 0.00 0.00 63 1015.8
20260903171613 29 246 0.0 3.2 0.00 0.00 0.00 67 1016.0
20260903170056 28 191 0.0 3.2 0.00 0.00 0.00 70 1016.2
20260903164621 27 258 0.0 3.2 0.00 0.00 0.00 71 1016.7
20260903163058 27 262 0.0 3.2 0.00 0.00 0.00 72 1017.0
20260903161550 27 279 0.0 3.2 0.00 0.00 0.00 74 1016.9
20260903160053 27 28 0.0 3.2 0.00 0.00 0.00 73 1017.4
20260903154551 27 344 1.6 9.7 0.00 0.00 0.00 75 1017.3
20260903153048 27 321 3.2 14.5 0.00 0.00 0.00 75 1017.3
20260903151544 26 327 1.6 4.8 0.00 0.00 0.00 77 1017.4
20260903150041 26 187 0.0 3.2 0.00 0.00 0.00 79 1016.7
20260903144544 25 177 0.0 3.2 0.00 0.00 0.00 80 1016.9
20260903143044 25 345 0.0 3.2 0.00 0.00 0.00 82 1017.1
20260903141535 24 198 0.0 3.2 0.00 0.00 0.00 83 1017.1
20260903140039 24 165 0.0 3.2 0.00 0.00 0.00 84 1016.6
20260903134529 23 212 0.0 3.2 0.00 0.00 0.00 86 1016.8
20260903133028 23 238 0.0 3.2 0.00 0.00 0.00 87 1017.0
20260903131528 22 171 0.0 3.2 0.00 0.00 0.00 89 1016.8
20260903130026 22 228 0.0 3.2 0.00 0.00 0.00 90 1017.4
20260903124526 22 259 0.0 3.2 0.00 0.00 0.00 89 1017.6
20260903123026 22 342 0.0 3.2 0.00 0.00 0.00 90 1018.1
20260903121531 22 346 0.0 1.6 0.00 0.00 0.00 90 1017.8
20260903120036 22 345 0.0 3.2 0.00 0.00 0.00 91 1017.6
20260903114522 21 341 0.0 4.8 0.00 0.00 0.00 91 1017.6
20260903113026 21 331 0.0 3.2 0.00 0.00 0.00 91 1017.3
20260903111518 21 338 0.0 14.5 0.00 0.00 0.00 91 1017.1
20260903110018 21 348 1.6 12.9 0.00 0.00 0.00 91 1017.0
20260903104514 21 340 1.6 8.0 0.00 0.00 0.00 91 1016.7
20260903103012 21 347 0.0 4.8 0.00 0.00 0.00 91 1016.0
20260903101520 22 338 1.6 3.2 0.00 0.00 0.00 90 1015.6
20260903100020 22 171 0.0 3.2 0.00 0.00 0.00 90 1014.9
20260903094520 22 171 0.0 0.0 0.00 0.00 0.00 90 1014.9
20260903093007 22 171 0.0 0.0 0.00 0.00 0.00 89 1015.0
20260903091507 22 171 0.0 1.6 0.00 0.00 0.00 89 1014.9
20260903090005 22 171 0.0 3.2 0.00 0.00 0.00 89 1014.9
20260903084507 22 171 0.0 0.0 0.00 0.00 0.00 89 1014.9
20260903083002 22 171 0.0 0.0 0.00 0.00 0.00 88 1014.9
20260903081502 22 171 0.0 0.0 0.00 0.00 0.00 87 1014.9
20260903074558 23 171 0.0 3.2 0.00 0.00 0.00 87 1014.8
20260903073058 23 169 0.0 3.2 0.00 0.00 0.00 87 1014.8
20260903071628 23 169 0.0 3.2 0.00 0.00 0.00 87 1014.9
20260903070058 23 168 0.0 3.2 0.00 0.00 0.00 87 1014.8
20260903064559 23 161 0.0 3.2 0.00 0.00 0.00 87 1014.7
20260903063054 23 160 0.0 3.2 0.00 0.00 0.00 87 1014.6
20260903061553 23 161 0.0 3.2 0.00 0.00 0.00 87 1014.8
20260903060059 23 158 0.0 3.2 0.00 0.00 0.00 86 1014.9
20260903054550 23 157 0.0 3.2 0.00 0.00 0.00 86 1015.0
20260903053050 23 154 0.0 3.2 0.00 0.00 0.00 86 1015.2
20260903051607 23 176 0.0 3.2 0.00 0.00 0.00 86 1015.2
20260903050051 23 162 0.0 3.2 0.00 0.00 0.00 85 1015.2
20260903044545 23 188 0.0 3.2 0.00 0.00 0.00 86 1015.4
20260903043139 23 176 0.0 3.2 0.00 0.00 0.00 86 1015.5
20260903041541 23 175 0.0 3.2 0.00 0.00 0.00 86 1015.5
20260903040038 23 175 0.0 3.2 0.00 0.00 0.00 87 1015.6
20260903034541 23 175 0.0 3.2 0.00 0.00 0.00 87 1015.6
20260903033036 23 178 0.0 3.2 0.00 0.00 0.00 87 1015.6
20260903031536 23 188 0.0 3.2 0.00 0.00 0.00 87 1015.6
20260903030036 23 176 0.0 3.2 0.00 0.00 0.00 86 1015.6
20260903024536 23 179 0.0 3.2 0.00 0.00 0.00 85 1015.6
20260903023035 23 181 0.0 3.2 0.00 0.00 0.00 84 1015.4
20260903021536 23 184 0.0 3.2 0.00 0.00 0.00 83 1015.3
20260903020033 23 171 0.0 3.2 0.00 0.00 0.00 82 1015.4
20260903014533 24 171 0.0 1.6 0.00 0.00 0.00 81 1015.5
20260903013035 24 168 0.0 3.2 0.00 0.00 0.00 81 1015.4
20260903011531 24 198 0.0 3.2 0.00 0.00 0.00 80 1015.4
20260903010030 24 119 0.0 1.6 0.00 0.00 0.00 79 1015.7
20260903004533 25 119 0.0 0.0 0.00 0.00 0.00 80 1015.8
20260903003029 25 119 0.0 0.0 0.00 0.00 0.00 79 1015.8
20260903001528 25 119 0.0 3.2 0.00 0.00 0.00 79 1015.8
20260903000027 25 119 0.0 0.0 0.00 0.00 0.00 78 1016.1
20260902234526 25 119 0.0 3.2 0.00 0.00 0.00 77 1016.3
20260902233026 25 119 0.0 3.2 0.00 0.00 0.00 76 1015.8
20260902231531 26 163 0.0 3.2 0.00 0.00 0.00 74 1015.8
20260902230025 26 127 0.0 4.8 0.00 0.00 0.00 72 1016.0
20260902224531 26 267 0.0 3.2 0.00 0.00 0.00 76 1016.0
20260902223026 26 273 0.0 3.2 0.00 0.00 0.00 77 1015.8
20260902221522 27 273 0.0 1.6 0.00 0.00 0.00 76 1015.6
20260902220021 27 259 0.0 3.2 0.00 0.00 0.00 73 1015.5
20260902214520 28 258 0.0 3.2 0.00 0.00 0.00 71 1015.6
20260902213019 28 259 0.0 1.6 0.00 0.00 0.00 68 1015.9
20260902211519 27 74 0.0 3.2 0.00 0.00 0.00 70 1016.0
20260902210021 27 101 0.0 3.2 0.00 0.00 0.00 71 1016.1
20260902204521 27 98 0.0 3.2 0.00 0.00 0.00 70 1016.0
20260902203020 27 51 0.0 3.2 0.00 0.00 0.00 70 1016.2
20260902201519 27 100 0.0 3.2 0.00 0.00 0.00 72 1016.2
20260902200026 26 336 0.0 4.8 0.00 0.00 0.00 75 1016.4
20260902194521 25 97 0.0 3.2 0.00 0.00 0.00 75 1016.8